Hourly Data Report for July 16, 2021

BANCROFT AUTO
ONTARIO
Current Station Operator: ECCC - MSC

45°04'17.000" N
77°52'44.000" W
330.70 m
616I001
71294
WRK

Download Data

Hourly Data (July 2021)
Hourly Data Report for July 16, 2021
TIME
LST
Temp Definition
°C
Dew Point Definition
°C
Rel Hum Definition
%
Precip. Amount Definition
mm

Wind Dir Definition
10's deg

Wind Spd Definition
km/h
Visibility Definition
km
Stn Press Definition
kPa
Hmdx Definition


Wind Chill Definition


Weather Definition


00:00 18.9 17.8 93 0.0 25 3   97.28     LegendNANA
01:00 17.9 16.8 93 0.1 32 7   97.35     LegendNANA
02:00 17.0 15.5 91 0.0 34 12   97.43     LegendNANA
03:00 16.4 14.8 90 0.0 33 5   97.51     LegendNANA
04:00 16.3 14.1 87 0.0 33 6   97.57     LegendNANA
05:00 15.8 14.4 91 0.0 34 3   97.64     LegendNANA
06:00 15.8 13.9 88 0.0 34 5   97.71     LegendNANA
07:00 16.5 13.6 83 0.0 32 8   97.79     LegendNANA
08:00 17.4 13.1 76 0.0 36 9   97.87     LegendNANA
09:00 18.7 12.1 65 0.0 34 9   97.91     LegendNANA
10:00 20.2 10.7 54 0.0 36 7   97.94     LegendNANA
11:00 21.6 11.9 54 0.0 4 9   97.97     LegendNANA
12:00 22.4 11.3 49 0.0 6 8   98.01     LegendNANA
13:00 23.4 11.8 48 0.0 4 8   97.98 26   LegendNANA
14:00 23.4 10.3 44 0.0 6 9   97.97 25   LegendNANA
15:00 23.4 11.2 46 0.0 4 8   97.96 25   LegendNANA
16:00 23.3 12.1 49 0.0 4 6   97.93 26   LegendNANA
17:00 22.7 13.8 57 0.0 7 3   97.91 26   LegendNANA
18:00 21.5 15.5 69 0.0 8 3   97.92 26   LegendNANA
19:00 19.3 16.0 81 0.0 21 3   97.94     LegendNANA
20:00 17.8 16.2 90 0.0   0   97.94     LegendNANA
21:00 16.9 15.8 93 0.0 0 1   98.02     LegendNANA
22:00 16.3 15.3 94 0.0   0   98.05     LegendNANA
23:00 15.3 14.7 96 0.0   0   98.05     LegendNANA

Notes on Data Quality.

Legend

  • E = Estimated
  • M = Missing
  • NA = Not Available*
  • [empty] = Indicates an unobserved value
Date modified: